This is the latest recevied weather packets stored in our database for station/object K5EAA-13. If no packets are shown the sender has not sent any weather packets the latest 10 day(s).
| Time | Temp. | Humidity | Pressure | Rain* | Wind** | Luminosity | Snow |
|---|---|---|---|---|---|---|---|
| 1787943583 | 37.22° C | 33% | 1017.1 hPa | 0 mm | - | 771 W/m² | - |
| 1787943278 | 37.78° C | 33% | 1016.9 hPa | 0 mm | - | 766 W/m² | - |
| 1787942978 | 37.78° C | 34% | 1017 hPa | 0 mm | - | 765 W/m² | - |
| 1787942674 | 37.78° C | 33% | 1017.1 hPa | 0 mm | - | 759 W/m² | - |
| 1787942373 | 37.22° C | 33% | 1017.2 hPa | 0 mm | - | 750 W/m² | - |
| 1787942068 | 37.22° C | 32% | 1017.5 hPa | 0 mm | - | 734 W/m² | - |
| 1787941764 | 37.22° C | 33% | 1017.2 hPa | 0 mm | - | 738 W/m² | - |
| 1787941462 | 36.11° C | 36% | 1017.3 hPa | 0 mm | - | 748 W/m² | - |
| 1787941162 | 37.22° C | 35% | 1017.5 hPa | 0 mm | - | 731 W/m² | - |
| 1787940857 | 36.67° C | 36% | 1017.6 hPa | 0 mm | - | 730 W/m² | - |
| 1787940555 | 37.22° C | 36% | 1017.7 hPa | 0 mm | - | 727 W/m² | - |
| 1787940249 | 36.11° C | 37% | 1017.6 hPa | 0 mm | - | 733 W/m² | - |
| 1787939943 | 36.11° C | 37% | 1017.7 hPa | 0 mm | - | 728 W/m² | - |
| 1787939643 | 36.11° C | 38% | 1017.8 hPa | 0 mm | - | 721 W/m² | - |
| 1787939338 | 36.11° C | 40% | 1017.8 hPa | 0 mm | - | 719 W/m² | - |
| 1787939033 | 35.56° C | 39% | 1017.9 hPa | 0 mm | - | 716 W/m² | - |
| 1787938731 | 35.56° C | 40% | 1018 hPa | 0 mm | - | 714 W/m² | - |
| 1787938428 | 36.11° C | 41% | 1018.1 hPa | 0 mm | - | 713 W/m² | - |
| 1787938123 | 36.11° C | 40% | 1018.2 hPa | 0 mm | - | 712 W/m² | - |
| 1787937818 | 36.11° C | 40% | 1018.2 hPa | 0 mm | - | 709 W/m² | - |
| 1787937514 | 35° C | 42% | 1018.2 hPa | 0 mm | - | 700 W/m² | - |
| 1787937210 | 35° C | 44% | 1018.2 hPa | 0 mm | - | 698 W/m² | - |
| 1787936910 | 35° C | 45% | 1018.4 hPa | 0 mm | - | 690 W/m² | - |
| 1787936609 | 35° C | 44% | 1018.6 hPa | 0 mm | - | 687 W/m² | - |
| 1787936308 | 35° C | 45% | 1018.3 hPa | 0 mm | - | 680 W/m² | - |
* Rain latest hour (hover to see other rain measurements)
** Current wind speed in m/s (hover to see current wind gust speed)